TimeIST,TemperatureF,Dew PointF,Humidity,Sea Level PressureIn,VisibilityMPH,Wind Direction,Wind SpeedMPH,Gust SpeedMPH,PrecipitationIn,Events,Conditions,WindDirDegrees,DateUTC
12:00 AM,57.2,53.6,88,30.01,0.7,Calm,Calm,-,N/A,,Smoke,0,2013-12-20 18:30:00
1:00 AM,57.2,53.6,88,30.01,0.7,Variable,3.5,-,N/A,,Smoke,0,2013-12-20 19:30:00
2:00 AM,57.2,53.6,88,30.01,0.7,Calm,Calm,-,N/A,,Smoke,0,2013-12-20 20:30:00
2:30 AM,57,54,86,29.99,1,Calm,Calm,,,,Smoke,,2013-12-20 21:00:00
3:00 AM,55.4,53.6,94,30.01,0.6,Calm,Calm,-,N/A,,Smoke,0,2013-12-20 21:30:00
4:00 AM,53.6,53.6,100,30.01,0.6,Calm,Calm,-,N/A,,Smoke,0,2013-12-20 22:30:00
5:00 AM,55.4,53.6,94,30.01,0.6,ENE,4.6,-,N/A,,Smoke,70,2013-12-20 23:30:00
5:30 AM,55,54,94,30.00,1,North,4.6,,,,Mist,0,2013-12-21 00:00:00
6:00 AM,55.4,53.6,94,30.01,0.5,East,4.6,-,N/A,Fog,Shallow Fog,100,2013-12-21 00:30:00
7:00 AM,55.4,53.6,94,30.04,0.5,Calm,Calm,-,N/A,Fog,Shallow Fog,0,2013-12-21 01:30:00
8:00 AM,55.4,53.6,94,30.04,0.4,East,6.9,-,N/A,Fog,Shallow Fog,90,2013-12-21 02:30:00
8:30 AM,55,55,98,30.03,0,NNE,6.9,,,Fog,Heavy Fog,20,2013-12-21 03:00:00
9:00 AM,55.4,53.6,94,30.06,0.3,East,5.8,-,N/A,Fog,Fog,100,2013-12-21 03:30:00
10:00 AM,59.0,53.6,82,30.06,0.6,ESE,6.9,-,N/A,,Mostly Cloudy,110,2013-12-21 04:30:00
11:00 AM,60.8,51.8,72,30.06,0.8,ESE,8.1,-,N/A,,Mostly Cloudy,120,2013-12-21 05:30:00
11:30 AM,61,53,67,30.04,1,SE,4.6,,,,Mist,140,2013-12-21 06:00:00
1:00 PM,62.6,51.8,68,30.01,1.1,SSE,6.9,-,N/A,,Smoke,160,2013-12-21 07:30:00
2:00 PM,64.4,50.0,59,29.98,1.2,SSE,5.8,-,N/A,,Smoke,160,2013-12-21 08:30:00
2:30 PM,64,49,49,29.95,1,SE,5.8,,,,Smoke,140,2013-12-21 09:00:00
3:00 PM,66.2,48.2,52,29.95,1.2,SE,6.9,-,N/A,,Smoke,130,2013-12-21 09:30:00
4:00 PM,64.4,48.2,56,29.95,1.2,SSE,6.9,-,N/A,,Smoke,160,2013-12-21 10:30:00
5:00 PM,62.6,48.2,59,29.95,1.2,SSW,4.6,-,N/A,,Smoke,210,2013-12-21 11:30:00
5:30 PM,62,51,57,29.94,1,Calm,Calm,,,,Smoke,,2013-12-21 12:00:00
7:00 PM,57.2,50.0,77,29.98,0.9,Calm,Calm,-,N/A,,Smoke,0,2013-12-21 13:30:00
7:30 PM,55.4,50.0,82,30.01,0.9,Calm,Calm,-,N/A,,Smoke,0,2013-12-21 14:00:00
8:00 PM,55.4,50.0,82,30.01,0.7,Calm,Calm,-,N/A,,Partly Cloudy,0,2013-12-21 14:30:00
8:30 PM,55,49,74,30.01,1,,2.3,,,,Mist,,2013-12-21 15:00:00
9:00 PM,57.2,51.8,82,30.04,0.7,Variable,2.3,-,N/A,,Partly Cloudy,0,2013-12-21 15:30:00
10:30 PM,55.4,53.6,94,30.06,0.4,ENE,4.6,-,N/A,Fog,Shallow Fog,70,2013-12-21 17:00:00
11:30 PM,56,55,95,30.03,0,East,6.9,,,Fog,Partial Fog,90,2013-12-21 18:00:00